Regional Weather Roundup
Issued by NWS Cleveland, OH

Home | Current Version | Previous Version | Text Only | Print | Product List | Glossary Off
Versions: 1 2 3 4 5 6 7 8 9 10 11 12 13 14 15 16 17 18 19 20 21 22 23 24 25 26 27 28 29 30 31 32 33 34 35 36 37 38 39 40 41 42 43 44 45 46 47 48 49 50

000
ASUS41 KCLE 272002
RWRCLE
OHIO REGIONAL WEATHER ROUNDUP
NATIONAL WEATHER SERVICE CLEVELAND, OH
300 PM EST THU NOV 27 2014

NOTE: "FAIR" INDICATES FEW OR NO CLOUDS BELOW 12,000 FEET WITH NO
SIGNIFICANT WEATHER AND/OR OBSTRUCTIONS TO VISIBILITY.

OHZ001>008-015>018-024>027-034-035-043-044-272100-
   NORTHWEST OHIO

CITY           SKY/WX    TMP DP  RH WIND       PRES   REMARKS
DEFIANCE       CLOUDY    34  26  72 W6        30.21S WCI  29
FINDLAY        FLURRIES  33  24  69 W18       30.19S WCI  22
TOLEDO EXPRESS CLOUDY    33  23  66 W16       30.18S WCI  23
TOLEDO EXEC    CLOUDY    34  23  64 W15       30.19S WCI  24
LIMA           LGT SNOW  32  26  78 W15       30.21R WCI  22
$$

OHZ009>014-019>023-028>033-038-089-272100-
   NORTHEAST OHIO

CITY           SKY/WX    TMP DP  RH WIND       PRES   REMARKS
CLE-HOPKINS    CLOUDY    32  22  66 W12       30.17R WCI  23
CLE-LAKEFRONT  CLOUDY    33  24  69 W20       30.14S WCI  21
CUY CO. ARPT   CLOUDY    34  23  64 NW15G23   30.13S WCI  24
LORAIN-ELYRIA  CLOUDY    31  22  69 NW13      30.16R WCI  21
ASHTABULA      CLOUDY    31  23  72 W10       30.11R WCI  22
AKRON-CANTON   CLOUDY    32  22  66 W12       30.12R WCI  23
WOOSTER        CLOUDY    31  21  66 W16       30.15R WCI  20
MANSFIELD      CLOUDY    32  21  64 NW12G18   30.15R WCI  23
YOUNGSTOWN     FLURRIES  31  23  72 W9        30.10R WCI  23
$$

OHZ042-051>053-060>062-070>072-077>081-272100-
  SOUTHWEST OHIO

CITY           SKY/WX    TMP DP  RH WIND       PRES   REMARKS
CINC-COVINGTON LGT SNOW  31  22  69 W17       30.29S WCI  19
CINC-LUNKEN    CLOUDY    33  24  69 W12G20    30.32R WCI  24
HAMILTON       CLOUDY    33  25  72 W12G17    30.30S WCI  24
DAYTON         LGT SNOW  32  27  81 W12       30.25S WCI  23
WRIGHT-PAT AFB FLURRIES  32  24  73 W15G21    30.25R WCI  22
DAYTON GENERAL LGT SNOW  31  25  78 W10       30.25R WCI  22
WILMINGTON     CLOUDY    32  21  64 W14       30.24S WCI  22
$$

OHZ036-037-039>041-045>050-054>059-063>069-073>076-082>088-272100-
  CENTRAL AND SOUTHEAST OHIO

CITY           SKY/WX    TMP DP  RH WIND       PRES   REMARKS
COLUMBUS       CLOUDY    33  21  61 W12       30.21R WCI  24
OSU AIRPORT    CLOUDY    34  19  54 NW17      30.20R WCI  23
BOLTON FIELD   CLOUDY    34  21  60 NW6       30.21S WCI  29
RICKENBACK AFB CLOUDY    33  21  61 W13       30.22R WCI  23
NEWARK         CLOUDY    32  22  66 NW12      30.19S WCI  23
MARION         CLOUDY    32  21  64 W9G20     30.20R WCI  24
LANCASTER      CLOUDY    32  22  66 VRB6      30.21S WCI  26
ZANESVILLE     CLOUDY    31  22  69 NW13      30.19R WCI  21
NEW PHILLY     FLURRIES  32  24  72 NW9       30.17R WCI  24
$$


USA.gov is the U.S. government's official web portal to all federal, state and local government web resources and services.